CAPE
4676 4499 4219 4258 4524 4696 4635 4613 4340 4120 4017 3756 3777 3723 3642 3280 3103 2895 3034 2740 2526 2466 2282 1948 1585 1369 1133 1097 896 811 910 1000 1122 1107 1074 1256 1154 982 957 908 880 810 978 897 735 811 888 732 871 892 908 986 958 820 665 989 904 895 1048 1057 964 1009 966 989 926 876 936 997 992 775 712 629 309 520 709 710 514 595 506 444 450 302 272 281 338
4804 4513 4339 4553 4417 4678 4530 4566 4426 4102 3988 3907 3703 3739 3804 3544 3476 3330 3006 2909 2591 2360 2336 2135 1731 1596 1267 1198 1044 979 1055 1073 1205 1067 1079 1195 1181 1004 1148 1097 953 876 812 914 1068 801 887 974 815 722 836 755 796 821 818 668 618 504 762 780 758 971 1247 942 976 852 611 640 909 1043 911 820 654 645 444 588 546 637 641 494 570 512 405 324 271
4502 4665 4549 4542 4448 4620 4816 4726 4443 4205 3872 3846 3487 3408 3755 3822 3760 3581 3056 2900 2762 2461 2378 2052 1821 1637 1336 1196 1160 1134 1087 1174 1144 1086 1070 1195 1142 1000 1000 1014 830 842 840 762 762 799 861 868 753 777 816 923 1003 919 769 876 588 530 582 525 706 840 1017 929 689 545 529 572 690 660 655 832 721 714 730 733 736 826 778 660 443 389 397 365 332
4236 4723 4680 4624 4448 4704 4933 4911 4292 3956 3593 3630 3422 3179 2999 3778 3909 3759 3188 2814 2898 2700 2442 1990 1820 1691 1373 1204 1204 1118 1164 1128 1059 1138 1222 1183 1185 1156 1059 1042 927 882 894 775 722 769 815 809 661 562 733 940 1034 973 901 959 1036 1092 912 927 1040 1038 1070 1089 1163 1063 1059 887 750 637 682 716 862 856 769 681 486 491 631 605 680 628 561 482 417
3741 4358 4372 4203 4322 4761 4855 4852 4625 4301 3971 3615 3511 3118 2989 3382 3803 3626 3356 2952 3035 2772 2457 2036 1938 1769 1458 1193 1160 1152 1232 1112 925 908 1193 1233 1227 1144 996 914 951 985 850 745 834 759 790 766 817 793 894 938 993 974 905 945 976 973 1060 1139 1233 1212 949 923 1030 961 808 730 706 739 809 822 755 770 840 774 823 825 904 747 665 622 687 602 322
3817 4231 3964 4332 4615 4806 4739 4530 4330 4374 4101 3709 3467 3312 3101 3752 3881 3701 3590 3223 3242 2831 2517 2141 1926 1815 1492 1242 1126 1160 1290 1137 974 921 1032 1182 1259 1094 910 753 712 796 741 798 821 917 905 902 842 832 864 864 840 835 877 864 984 1050 954 1098 1179 1102 1027 989 1036 1063 1044 1020 924 637 500 534 708 796 686 696 663 659 647 757 828 739 614 607 346
3772 4298 4654 4212 4862 4848 4743 4568 4584 4486 4258 3960 3746 3677 3243 3146 3384 3368 3324 3033 3013 2677 2562 2304 1954 1834 1620 1295 1146 1171 1349 1276 1178 1096 1057 1148 1203 1065 866 750 667 729 696 747 736 789 848 831 899 997 981 903 796 829 1003 1006 829 731 1002 1126 1062 1068 1072 1012 1055 1078 976 907 948 987 894 837 855 722 894 923 872 698 594 743 563 334 491 568 502
3763 4465 4800 4684 4972 5012 4912 4737 4569 4576 4414 4421 4226 3924 3717 3668 3790 3865 3661 3406 2980 2781 2577 2450 2100 1877 1757 1330 1201 1258 1270 1042 1053 1036 1020 1137 1100 893 751 608 631 735 690 740 647 550 668 738 653 870 946 1047 977 914 806 914 1073 1084 1254 1148 1198 1246 1151 1097 972 878 809 695 598 424 341 313 411 521 551 586 721 930 1109 881 440 343 456 819 838
3726 4464 4907 4991 5225 5310 5252 5073 4771 4592 4741 4859 4662 4457 4300 4272 4298 4223 3922 3550 3254 3061 2830 2601 2247 2029 1833 1194 1215 1486 1256 816 974 1104 705 949 789 718 594 506 517 545 625 627 682 675 602 642 485 524 972 1114 943 911 832 833 999 1116 1248 1300 1314 1123 888 794 870 821 743 651 497 392 291 316 345 292 248 342 453 503 860 759 440 385 647 496 483
3871 4548 5010 5232 5520 5555 5537 5437 5111 5099 5186 5209 5044 4799 4689 4720 4472 4320 4242 3848 3586 3389 2884 2852 2217 2047 1596 1329 1480 1669 956 813 737 756 587 828 425 366 668 546 332 377 557 668 646 636 595 601 508 755 956 1577 1386 789 579 698 625 831 1269 1446 1518 1273 1111 854 656 527 455 411 331 214 70 16 39 121 214 216 282 422 567 735 615 576 434 378 440
4105 4700 5226 5624 5813 5877 5944 5877 5581 5410 5513 5538 5438 5176 5018 4974 4677 4251 4332 4094 3749 3656 3608 2946 2404 2229 2026 1851 1615 1368 1254 1270 1211 1018 705 652 646 723 493 391 362 587 364 749 697 719 742 871 818 924 1170 1247 1727 1430 1202 910 699 663 442 433 750 1006 756 641 494 428 442 351 288 202 86 55 96 218 310 227 213 396 417 432 461 434 382 260 149
4262 4757 5422 5947 6112 6137 6104 6132 5985 5738 5716 5653 5608 5386 5241 5084 4773 4488 4391 4361 4013 3797 3555 3293 2522 2274 2086 1978 1802 1672 1634 1659 1607 1484 905 533 537 574 445 388 443 464 428 659 1118 1276 903 826 814 740 884 1198 1225 1513 1415 721 380 327 329 426 505 538 616 558 464 413 367 242 158 128 104 149 277 325 338 220 456 348 447 398 383 420 352 233 184
4650 4969 5711 6136 6292 6357 6306 6224 5934 5747 5608 5594 5452 5306 5163 4817 4564 4298 4123 4224 4172 3870 3984 3215 2593 2300 2101 2027 1873 1752 1739 1749 1837 1556 864 672 589 445 453 543 451 1037 1395 1255 873 906 1157 914 781 888 942 733 999 2028 1906 1336 662 533 421 517 623 713 747 665 478 355 340 302 266 206 140 162 281 459 523 510 344 216 307 291 290 247 161 101 104
5134 5268 5891 6219 6469 6396 6299 6026 5785 5605 5546 5425 5137 5014 4897 4666 4436 4291 4145 4150 4022 3739 3516 3283 2637 2324 2085 1922 1821 1745 1737 1745 1702 1488 706 620 757 550 524 498 935 1005 667 393 354 386 983 1253 1277 775 857 993 1110 1646 1908 1783 1776 1582 1370 1151 936 762 608 573 484 164 66 265 312 291 364 363 319 431 545 360 271 243 148 64 50 12 2 0 2
5529 5481 5830 6235 6470 6360 6137 5947 5792 5583 5423 5229 5011 4851 4815 4660 4366 4230 4062 3961 3873 3742 3296 2853 2522 2370 2183 1971 1854 1754 1710 1756 1584 1443 975 979 690 553 454 519 512 531 491 419 335 314 577 1992 1799 760 755 752 1008 1562 1784 1602 1454 1377 1280 1023 862 730 586 322 532 645 148 50 105 190 279 450 643 635 366 65 18 27 24 16 2 0 0 0 0
5672 5692 5846 6276 6408 6223 6000 5840 5669 5371 5220 5097 5000 4885 4676 4384 4306 4094 3749 3535 3295 3689 2914 2636 2460 2324 2171 2174 2020 1882 1563 1398 1298 1314 1247 956 779 752 636 548 522 482 572 551 401 487 1467 1973 1555 718 471 1146 1145 1356 1831 1796 1494 1268 1158 932 768 639 454 360 96 91 477 666 485 402 410 469 181 170 24 0 1 17 20 4 2 0 0 0 0
5924 5931 6036 6345 6314 6051 5767 5435 5312 5221 5064 4914 4817 4634 4374 4241 4161 3915 3505 3129 2830 3212 2892 2563 2402 2321 2217 2086 1938 1786 1569 1238 1409 1416 1332 958 880 776 711 622 518 473 482 417 412 600 2179 1652 1262 1316 1378 1482 1144 1193 1352 1399 1313 1029 936 764 632 227 190 119 79 0 0 0 0 0 35 1 0 0 0 0 0 1 2 0 0 0 0 0 0
6167 6291 6350 6352 6077 5722 5382 5094 5166 4734 4674 4586 4458 4253 4004 4004 4082 3754 3449 2904 2806 2599 2531 2464 2358 2237 2078 1894 1832 1738 1650 1543 1460 1291 1266 1214 1046 910 747 607 564 503 354 437 738 1850 1836 1930 1621 1545 1542 1248 1255 1126 1214 913 641 911 681 617 308 394 231 74 36 1015 19 0 0 0 0 0 0 0 0 0 0 0 0 0 1 8 6 3 0
6311 6165 6143 6071 5799 5423 5080 4793 4990 4566 4340 4294 3843 3839 3692 3667 3433 3181 2920 2908 2652 2287 2220 2243 2215 2042 1837 1693 1662 1629 1586 1475 1337 1261 1161 1093 948 796 656 562 438 353 367 499 1530 1974 1791 1652 1735 1580 1607 1282 1310 1236 929 545 613 732 736 478 272 171 133 346 374 335 387 465 380 204 159 113 14 0 33 0 0 0 0 1 17 57 82 151 77
6168 6069 5715 5625 5281 4935 4759 4551 4313 4134 4178 3946 3817 3672 3374 3079 3061 2859 2636 2319 2161 2017 1914 1856 1853 1662 1304 1344 1507 1455 1349 1298 1226 1118 992 926 796 702 628 546 450 432 834 1036 2294 1557 1638 1464 1133 1207 1198 1194 1150 1105 819 421 293 456 309 132 57 232 78 13 299 191 156 74 92 76 172 159 88 81 304 571 647 317 148 80 83 100 157 228 264
6070 5826 5421 4995 4948 4780 4687 4467 4051 3920 3816 3833 3470 3149 2904 2921 2702 2332 2183 1961 1762 1718 1644 1569 1338 1094 1008 1073 1241 1158 1060 958 878 810 777 746 678 650 655 606 561 929 1050 1169 1762 1652 1439 1492 1263 1148 1139 1085 827 503 369 497 371 46 60 96 105 0 0 2 37 41 39 74 83 97 88 131 173 81 22 4 0 0 37 173 351 364 296 2 0
5738 5568 5092 4808 4654 4471 4215 4125 3827 3571 3624 3501 3187 3089 2878 2618 2236 2127 1952 1822 1718 1455 1336 1262 1231 1121 1039 1005 1042 994 743 590 573 497 500 532 570 612 588 535 941 1093 1219 1305 1731 1535 1872 1642 1566 1417 1084 1002 802 572 424 120 0 0 7 0 0 0 0 0 0 0 6 2 1 2 10 28 4 0 0 2 0 0 0 0 0 0 0 0 0
5381 5056 4670 4402 4080 4041 4105 3956 3550 3428 3432 3159 2973 2955 2706 2309 2042 1834 1718 1597 1593 1438 1121 1089 1004 864 744 638 640 991 1617 824 1170 569 544 485 458 453 406 506 700 1101 1143 1638 1814 1911 1932 1503 1239 1456 1074 936 608 403 0 0 0 0 0 0 0 0 0 0 0 0 0 0 6 35 85 82 11 2 1 0 0 0 0 0 0 0 0 0 0
4592 4159 3873 3961 3888 3681 3584 3440 3291 3316 3192 3076 2851 2606 2225 2043 1892 1691 1588 1519 1465 1350 1230 996 800 627 772 935 1591 1486 1428 752 924 665 483 463 402 350 288 39 417 1352 1483 1592 1520 1473 1761 1230 1111 805 630 567 413 48 240 175 0 0 0 0 0 0 0 0 0 0 0 0 14 66 78 24 18 5 0 0 0 0 0 0 0 0 0 0 0
3913 3700 3588 3543 3384 3295 3286 3171 3012 3068 3032 2856 2543 2365 2234 1971 1680 1461 1365 1412 1360 1307 1251 1033 1069 1093 1287 1467 1259 1262 1130 630 708 534 540 88 79 246 70 292 471 530 850 998 898 928 920 732 574 501 440 396 352 317 301 0 0 0 0 0 0 0 0 0 0 0 30 65 83 28 11 4 0 0 0 0 0 0 0 0 0 0 0 0 0
3629 3486 3280 3159 3125 2995 2865 2773 2767 2802 2785 2494 2259 2074 1788 1675 1444 1310 1378 1301 1388 1312 1364 1083 1095 1249 1534 1391 1325 1196 1002 776 924 755 396 138 380 504 575 698 705 587 630 822 835 795 697 468 542 527 484 430 335 223 0 0 0 0 0 0 0 0 0 0 0 0 48 42 0 0 0 0 0 0 0 0 0 0 0 1 0 0 0 0 0
3329 3234 3104 2836 2598 2510 2602 2530 2381 2243 2159 2217 2056 1826 1613 1619 1556 1394 1328 1331 1374 1461 1264 1220 1412 1330 1363 1295 1293 1100 1172 738 798 875 859 828 805 820 815 862 740 513 529 658 742 769 608 350 361 374 330 236 0 0 6 1 0 0 0 0 0 0 0 0 0 31 11 0 0 0 0 0 0 0 0 0 2 7 4 1 0 0 0 0 0
3054 2809 2601 2543 2464 2298 2091 2093 2038 1932 1913 1877 1667 1589 1453 1408 1568 1600 1501 1520 1560 1565 1422 1414 1530 1321 1229 1252 1398 1109 952 931 812 836 829 831 835 879 895 920 746 407 463 582 549 386 305 327 285 134 0 0 0 0 0 0 0 0 0 0 0 0 0 0 6 64 39 37 0 0 0 9 0 0 0 0 0 0 0 0 0 0 0 0 0
2506 2086 1900 1944 1964 1922 1990 1902 1716 1692 1340 1593 1542 1506 1346 1506 1660 1306 1195 1246 1286 1386 1490 1531 1364 1188 1301 1561 1506 1154 1059 1157 985 618 504 514 569 607 693 670 607 533 450 379 75 20 94 123 0 0 14 1 0 0 0 0 0 0 0 0 0 0 0 0 48 138 98 13 0 38 0 0 0 0 0 0 0 0 0 0 0 0 0 0 0
2148 2000 2009 1816 1699 1648 1671 1448 1546 1302 1259 1431 1456 1417 1172 1150 1198 1171 1130 1066 1090 1079 1096 1530 1376 939 1452 1620 1320 1260 1206 1397 988 846 625 192 0 4 72 74 26 159 28 0 1 218 280 251 152 84 128 129 114 136 77 52 40 35 58 50 46 37 17 21 6 2 19 202 3 0 0 0 0 0 0 0 0 0 0 0 0 0 0 0 0
1988 1872 1678 1554 1429 1258 1107 1291 1623 1871 1289 1302 1341 1318 1150 1102 1138 1073 1027 1004 950 948 906 901 799 996 1747 860 799 978 1018 788 678 632 527 381 409 25 0 0 0 0 0 0 13 83 534 368 383 126 100 27 201 155 194 169 111 22 50 61 12 11 3 10 15 0 0 0 0 0 0 0 0 0 0 0 0 0 0 0 0 0 0 0 0
2078 1605 1426 1394 1436 1469 1337 1752 1694 1663 1342 1142 1267 1267 1123 996 1037 1035 986 936 889 880 820 745 716 757 819 591 443 700 801 753 713 626 543 513 456 169 0 0 0 0 0 6 536 292 302 274 106 45 62 62 85 55 3 5 93 59 22 7 40 42 34 0 0 0 0 0 0 0 0 0 0 0 0 0 0 0 0 0 0 0 0 0 0
1700 1558 1627 1603 1586 1790 1759 1866 1633 1456 1337 1166 1077 1135 1071 1030 970 971 894 815 761 730 698 631 753 754 709 546 591 839 759 736 715 367 305 320 196 0 0 0 0 0 0 102 268 290 304 185 119 133 66 82 99 82 109 16 6 1 18 48 0 20 2 0 0 0 0 0 0 0 0 0 0 0 0 0 0 0 0 0 0 0 0 0 0
1912 1548 1459 1566 1829 2050 1807 1734 1529 1583 1466 1384 1256 1229 1170 873 866 818 776 671 595 666 693 681 688 720 615 526 496 472 546 773 727 502 0 0 0 0 0 0 0 0 57 392 177 265 120 60 87 130 143 68 31 11 50 40 25 0 0 0 0 1 104 11 0 0 0 0 0 0 0 0 0 0 0 0 0 0 0 0 0 0 0 0 0
1712 1787 1717 1671 1930 1787 1704 1720 1464 1268 1375 1406 1452 1292 1261 1334 1121 791 698 693 680 710 705 688 683 654 566 492 477 477 453 465 466 459 381 358 96 0 0 0 0 0 0 14 80 92 114 122 98 92 71 26 33 3 1 7 9 0 0 0 0 0 0 0 0 0 1 0 0 0 0 0 0 0 0 0 0 0 0 0 0 0 0 0 0
1692 1596 1646 1815 1756 1760 1631 1485 1418 1362 1385 1356 1376 1253 1203 1099 1028 830 632 534 615 680 707 678 621 543 472 312 0 0 372 398 466 443 455 443 210 0 16 60 36 5 1 4 88 105 132 126 40 229 98 55 24 0 0 0 0 0 0 0 0 0 0 0 0 0 0 0 0 0 0 0 0 0 0 0 0 0 0 0 0 0 0 0 0
1331 1463 1431 1594 1464 1121 1136 1467 1560 1372 1193 1186 1204 1146 1159 942 942 740 668 711 465 411 496 504 471 446 347 0 0 346 328 216 117 142 172 110 0 0 28 61 60 38 4 5 9 37 103 86 54 43 58 39 9 0 0 0 0 0 0 5 1 0 0 0 0 0 0 0 0 0 0 0 0 0 0 0 0 0 0 0 0 0 0 0 0
1506 1388 1446 1462 1433 1630 1578 1227 1045 1025 1189 1241 1310 1142 991 746 632 625 587 723 127 0 0 0 8 0 0 0 0 407 425 208 0 0 0 0 0 0 6 73 158 183 22 36 83 123 103 73 15 42 7 12 11 2 0 0 0 0 0 0 17 24 4 0 1 0 0 0 0 0 2 0 0 0 0 0 0 0 0 0 0 0 0 0 0
2030 1422 1022 995 1127 1164 986 1067 881 900 909 840 724 854 773 629 630 708 763 529 179 10 0 0 0 0 0 0 0 97 74 0 0 0 0 0 0 0 0 6 46 122 162 68 42 32 54 88 19 12 7 7 22 5 3 4 4 4 8 0 0 0 0 0 5 28 8 0 1 3 0 0 0 0 0 0 0 0 0 0 0 0 0 0 0
1258 1372 941 732 1040 1167 1152 1006 901 861 736 910 777 862 840 803 683 770 755 618 478 325 50 5 55 5 0 0 0 0 0 0 0 0 0 0 0 0 0 0 14 84 203 37 26 4 2 23 22 28 47 1 9 6 1 0 0 1 0 0 2 2 0 0 0 0 0 0 0 0 0 0 0 0 0 0 0 0 0 0 0 0 0 0 0
1178 1178 1083 833 924 1383 1385 1016 558 754 521 932 1017 987 925 970 797 632 617 462 409 320 348 328 317 3 0 0 0 0 0 0 0 0 0 0 0 0 0 6 14 67 2 9 21 10 13 6 33 46 34 18 10 7 2 0 0 0 1 2 0 0 0 1 0 0 0 0 0 0 0 0 0 0 0 0 0 0 0 0 0 0 0 0 0
913 595 803 982 1604 1636 1471 1150 840 956 1102 1256 1322 1139 987 913 945 848 600 496 356 343 214 351 281 25 0 0 0 0 53 1 0 0 0 0 0 9 24 62 123 190 9 17 86 17 20 7 2 17 61 27 11 22 17 0 0 1 2 0 0 0 0 0 0 3 0 0 0 0 0 0 0 0 0 0 0 0 0 0 0 0 0 0 0
1197 727 510 984 1187 1179 1010 897 1423 1337 1265 1090 808 784 921 1022 870 503 634 403 327 239 265 323 110 1 0 0 0 0 0 19 4 13 0 2 11 28 35 43 22 28 32 6 1 1 3 2 2 3 10 21 28 8 0 0 2 0 0 0 0 0 0 0 0 0 0 0 0 0 0 0 0 0 0 0 0 0 0 0 0 0 0 0 0
1451 1128 1143 960 858 838 922 757 899 1146 1272 879 621 651 561 686 538 356 219 157 226 185 260 159 32 0 58 83 0 0 0 1 23 54 128 34 21 11 13 12 12 4 0 0 0 0 0 0 0 0 1 2 5 0 0 0 0 0 0 0 0 0 0 0 0 0 0 0 0 0 0 0 0 0 0 0 0 0 0 0 0 0 0 0 0
1322 1349 908 814 748 716 650 834 736 631 616 510 744 544 438 167 152 202 148 156 235 268 220 106 45 18 0 0 0 0 0 2 15 61 141 71 31 6 9 16 26 20 2 2 20 4 0 0 0 1 5 5 10 4 4 0 0 0 0 0 0 0 0 0 0 0 0 0 0 0 0 0 0 0 0 0 0 0 0 0 0 0 0 0 0
1048 1004 778 486 502 429 575 390 395 308 260 234 282 198 88 30 83 112 55 102 184 136 101 84 43 24 2 1 0 0 6 8 13 51 68 49 32 30 21 9 0 1 1 2 1 0 0 0 0 0 0 18 16 14 12 0 0 0 0 0 0 0 0 0 0 0 0 0 0 0 0 0 0 0 0 0 0 0 0 0 0 0 0 0 0
654 454 303 387 303 428 619 480 397 334 231 139 86 22 21 48 145 98 81 92 128 70 60 79 119 107 125 114 73 79 18 5 14 44 68 66 108 108 46 18 2 3 2 2 2 0 0 1 0 0 1 4 11 2 0 0 0 0 0 0 0 0 0 0 0 0 0 0 0 0 0 0 0 0 0 0 0 0 0 0 0 0 0 0 0
300 418 475 375 353 318 251 237 146 37 42 45 132 65 43 76 84 74 61 54 38 50 39 24 106 202 189 150 54 16 1 2 30 16 36 54 30 60 122 62 7 3 5 6 3 2 4 4 5 1 2 4 5 2 3 0 0 0 0 0 0 0 0 0 0 0 0 0 0 0 0 0 0 0 0 0 0 0 0 0 0 0 0 0 0
308 288 252 236 194 117 172 95 83 29 90 97 94 93 91 82 37 22 35 26 5 1 0 4 12 206 98 98 67 39 30 38 38 7 6 58 95 132 118 40 19 16 5 4 7 10 24 6 2 4 3 44 4 1 0 0 0 0 0 0 0 0 0 0 0 0 0 0 0 0 0 0 0 0 0 0 0 0 0 0 0 0 0 0 0
76 138 120 111 124 254 204 210 131 52 154 126 90 48 40 55 36 24 20 3 0 0 3 4 13 15 26 26 32 36 39 34 45 51 51 71 86 90 53 40 17 14 6 6 3 8 3 3 10 10 6 1 0 0 1 0 0 0 0 0 0 0 0 0 0 0 0 0 0 0 0 0 0 0 0 0 0 0 0 0 0 0 0 0 0
132 96 84 78 82 155 199 76 31 52 66 32 20 7 5 15 14 16 4 10 7 5 6 10 3 2 5 4 5 21 30 67 48 22 33 71 106 84 71 58 35 16 12 11 12 4 14 12 7 7 7 2 0 0 1 2 0 0 0 0 0 0 0 0 0 0 0 0 0 0 0 0 0 0 0 0 0 0 0 0 0 0 0 0 0
Wind_Speed
18 17 18 18 19 19 19 18 18 18 17 16 17 18 18 19 20 20 23 24 25 26 27 28 30 31 33 33 34 35 37 37 39 38 36 36 37 36 33 33 33 35 39 40 38 37 36 35 33 30 29 30 32 30 27 28 29 28 28 29 29 31 30 28 23 20 24 27 27 27 24 24 25 29 29 31 32 36 39 40 41 40 41 41 40
17 18 17 17 18 18 18 17 16 15 15 15 16 18 20 19 20 21 24 24 25 27 29 29 30 32 33 33 34 36 37 38 40 39 37 36 36 33 29 30 33 36 39 41 42 39 38 37 35 31 29 29 30 30 28 28 30 30 30 30 30 29 29 25 22 23 22 29 29 28 27 27 27 33 34 36 38 41 43 45 48 49 48 47 46
18 17 17 16 17 17 17 16 16 16 17 16 18 19 21 21 22 23 24 24 24 26 29 31 33 34 34 35 35 37 38 38 37 38 38 37 35 31 26 27 31 35 39 42 43 42 39 37 35 32 30 30 30 30 29 30 32 32 31 31 29 28 27 26 25 24 23 25 29 28 30 31 32 34 36 39 42 43 44 47 48 48 49 49 48
18 18 17 16 17 17 17 16 18 19 19 18 20 21 21 22 22 23 23 23 25 26 30 32 33 35 36 37 38 38 39 38 37 36 38 37 34 30 28 28 31 36 42 44 44 43 41 38 35 32 30 29 30 31 31 31 33 34 33 32 30 29 28 29 30 29 28 25 27 28 30 30 33 37 39 41 42 44 46 45 46 46 48 51 51
17 18 19 19 18 17 17 18 19 20 21 20 22 22 21 21 20 22 23 23 25 28 30 33 34 37 39 41 41 41 42 41 38 37 37 35 32 31 32 36 38 40 43 45 45 44 41 38 36 34 31 30 30 31 32 32 34 34 33 31 30 30 30 31 31 31 30 28 28 31 33 34 36 38 42 41 41 41 42 42 43 46 50 51 51
17 18 19 18 17 19 18 19 21 22 21 19 20 19 19 19 20 21 24 26 27 29 32 34 36 39 41 43 45 45 45 45 41 38 37 36 33 32 34 36 38 38 39 41 44 44 40 38 36 33 31 32 33 33 33 33 35 34 32 31 30 30 30 31 32 33 33 32 31 30 34 34 36 39 41 41 38 37 40 43 46 50 51 51 51
17 18 20 19 18 19 19 19 19 20 19 16 15 17 19 20 21 22 24 27 29 30 32 35 36 39 42 45 47 47 48 48 44 39 37 37 36 34 34 35 35 36 36 38 42 43 39 37 36 35 34 34 35 35 35 35 35 33 33 33 32 31 31 32 33 33 33 32 33 35 35 37 38 36 39 40 39 40 41 44 47 50 51 51 50
18 18 19 18 17 19 19 19 18 17 16 16 16 16 18 19 19 20 23 25 29 32 34 36 37 39 43 46 47 48 48 47 45 41 38 39 38 36 35 35 35 35 35 37 41 42 40 38 37 36 36 36 36 36 37 35 34 33 34 34 33 32 32 33 33 34 34 33 33 33 36 36 37 39 40 40 41 44 50 52 52 52 50 51 51
20 18 19 17 17 19 18 17 15 15 16 16 16 16 18 19 21 23 24 26 28 31 34 36 38 41 45 47 48 49 48 47 44 42 40 39 39 37 37 36 36 35 35 37 40 40 38 37 36 37 38 39 38 38 38 37 35 34 35 36 35 35 34 34 33 33 34 34 33 36 37 39 42 42 42 44 45 46 52 55 54 52 49 47 47
20 18 19 18 18 19 18 16 14 14 15 16 17 18 19 21 23 26 28 30 31 33 36 39 42 45 47 49 50 49 47 45 45 49 43 38 38 37 37 38 37 36 37 38 40 40 38 37 36 31 30 35 39 38 37 37 36 35 35 36 37 36 36 35 34 34 35 35 34 36 nan nan nan 45 46 47 48 49 52 54 51 49 48 46 46
20 18 18 18 19 19 17 16 15 16 17 17 18 20 21 23 25 28 30 34 35 36 38 43 46 48 49 50 52 50 48 45 51 53 48 42 37 36 38 38 37 37 37 39 40 40 39 40 37 31 31 32 36 37 37 39 39 38 37 37 38 40 39 38 37 38 38 38 38 40 nan nan nan 46 47 47 49 52 52 50 46 45 45 44 42
22 20 20 19 19 18 18 18 18 19 19 19 21 22 24 26 28 30 32 36 38 38 40 43 47 50 51 52 52 50 47 47 51 49 45 42 38 37 37 37 36 36 37 39 41 42 42 37 36 34 36 38 40 38 41 44 42 38 37 37 38 41 42 41 39 39 41 41 43 45 45 45 45 47 47 48 49 48 46 45 44 44 44 44 42
22 22 21 19 19 19 20 20 20 20 22 23 25 27 29 30 31 33 34 35 38 40 42 45 47 51 54 56 54 50 44 48 50 48 45 43 41 39 37 36 34 36 38 42 43 41 40 36 32 33 37 35 37 41 39 38 37 37 38 39 38 39 40 39 39 40 41 44 46 46 47 47 47 48 49 47 47 44 43 43 44 44 43 41 41
22 22 22 21 22 22 22 22 21 23 25 27 29 29 31 32 33 34 35 37 39 41 43 46 47 50 53 56 55 51 45 46 49 49 46 44 42 39 36 35 34 36 39 42 42 39 37 36 32 37 42 42 41 37 36 35 38 40 41 41 41 40 40 39 41 41 nan 47 49 48 48 48 46 47 47 47 46 44 44 nan nan nan nan nan nan
21 22 23 23 24 25 24 24 24 26 28 29 30 30 32 34 35 37 38 39 41 42 45 47 48 49 52 56 56 53 46 48 47 49 48 44 43 38 33 33 34 36 39 41 38 36 33 35 41 42 39 42 42 40 38 39 41 41 41 41 40 40 39 37 41 47 51 nan 52 48 46 46 46 46 48 nan nan nan nan nan nan nan nan nan nan
22 23 24 25 26 27 28 28 29 30 31 31 31 33 34 36 37 39 40 41 42 45 47 48 50 52 53 55 55 52 47 51 48 49 49 46 45 37 33 32 34 36 37 38 35 31 33 39 41 45 39 39 39 39 40 41 43 44 44 43 42 41 39 39 nan nan 53 57 54 50 49 48 52 51 nan nan nan nan nan nan nan nan nan nan nan
24 25 25 27 28 30 31 31 33 35 35 35 35 35 35 37 39 41 41 42 44 48 51 51 52 55 55 54 54 51 48 51 51 51 51 50 45 38 34 32 33 36 35 33 33 30 35 40 43 45 45 45 42 39 40 41 42 44 45 44 43 42 43 45 nan nan nan nan nan nan nan nan nan nan nan nan nan nan nan nan nan nan nan nan nan
26 27 27 29 31 32 33 35 37 39 39 39 39 38 38 39 41 43 43 45 46 50 53 53 54 54 56 55 54 51 47 47 50 52 52 50 46 40 36 34 34 35 33 31 31 34 39 43 45 46 48 46 48 49 47 45 44 44 44 42 42 43 46 nan nan 52 nan nan nan nan nan nan nan nan nan nan nan nan nan nan nan nan nan nan nan
30 30 30 32 34 35 38 39 41 42 42 42 42 43 42 43 44 46 45 46 47 51 54 54 53 55 56 55 54 53 48 47 49 51 51 48 43 37 36 35 34 33 33 32 35 39 40 41 45 46 48 50 56 51 45 45 46 45 44 44 43 45 49 52 53 51 52 49 48 47 46 45 nan nan nan nan nan nan nan nan nan nan nan 39 nan
34 34 34 35 37 39 42 43 44 44 45 47 46 46 47 46 48 48 47 48 50 53 54 55 56 56 56 55 52 49 48 47 48 49 47 45 44 38 37 36 33 32 33 35 39 38 40 42 45 48 57 58 58 54 50 49 46 46 44 44 nan 49 nan nan 49 48 47 nan nan nan 45 46 nan nan 46 45 46 51 48 nan nan 43 39 35 32
37 38 40 41 42 44 45 47 48 47 48 49 50 49 49 49 51 51 51 50 52 54 55 55 55 54 54 54 51 48 45 47 47 47 44 43 42 40 38 36 34 33 34 35 38 39 42 42 44 46 54 55 56 55 54 52 49 nan nan nan 50 nan nan nan nan nan nan nan nan nan nan 47 47 nan nan nan nan nan nan 49 46 41 36 nan nan
41 44 44 46 47 48 49 50 50 49 51 53 52 51 51 52 52 53 51 51 53 53 54 52 53 52 49 52 49 47 46 45 45 43 43 43 42 42 38 35 34 34 34 34 37 39 41 41 40 47 53 54 56 56 56 53 nan nan nan nan nan nan nan nan nan nan nan nan nan nan nan nan nan nan nan nan nan nan nan nan nan nan nan nan nan
46 47 48 49 50 51 53 54 52 52 56 57 57 56 55 55 54 55 53 51 52 53 54 53 52 51 50 49 46 46 47 44 45 44 43 45 45 43 38 34 38 35 35 37 38 39 39 41 44 49 53 55 56 56 nan nan nan nan nan nan nan nan nan nan nan nan nan nan nan nan nan nan nan nan nan nan nan nan nan nan nan nan nan nan nan
49 51 51 52 53 54 55 55 55 57 60 61 64 65 60 56 54 54 52 51 51 51 53 53 51 51 51 51 49 48 47 44 42 46 47 48 45 42 38 nan 35 37 37 37 39 40 41 44 47 54 55 55 56 nan 54 52 nan nan nan nan nan nan nan nan nan nan nan nan nan nan nan nan nan nan nan nan nan nan nan nan nan nan nan nan nan
53 54 54 54 55 56 56 57 58 60 63 67 69 67 62 57 54 52 51 50 49 50 52 53 51 51 52 53 51 49 48 46 45 44 49 nan nan 45 nan 39 35 40 41 42 44 45 50 55 57 57 56 54 54 53 51 nan nan nan nan nan nan nan nan nan nan nan nan nan nan nan nan nan nan nan nan nan nan nan nan nan nan nan nan nan nan
55 56 56 56 57 58 60 61 61 63 66 67 67 66 63 57 51 50 50 48 48 50 52 53 52 52 53 52 51 50 49 48 47 48 48 48 46 45 43 42 46 47 48 49 55 58 58 57 57 56 53 52 50 48 nan nan nan nan nan nan nan nan nan nan nan nan nan nan nan nan nan nan nan nan nan nan nan nan nan nan nan nan nan nan nan
56 56 57 57 58 59 61 61 63 64 63 61 61 63 64 58 51 49 50 49 49 51 53 53 53 53 53 52 50 50 50 50 49 49 48 48 47 47 46 46 48 51 48 49 52 51 53 51 48 48 46 48 nan nan nan nan nan nan nan nan nan nan nan nan nan nan nan nan nan nan nan nan nan nan nan nan nan nan nan nan nan nan nan nan nan
56 57 58 58 59 61 62 65 64 62 60 58 60 62 62 59 55 54 52 51 51 53 53 53 53 53 53 51 50 49 50 50 49 49 49 49 50 49 48 48 46 44 48 49 48 48 46 45 45 43 nan nan nan nan nan nan nan nan nan nan nan nan nan nan nan nan nan nan nan nan nan nan nan nan nan nan nan nan nan nan nan nan nan nan nan
57 59 58 59 59 60 61 62 62 61 62 61 60 59 57 56 58 58 54 52 51 52 52 54 54 53 52 51 50 49 48 49 48 51 51 52 54 53 51 49 48 47 47 51 nan nan nan 45 nan nan nan nan nan nan nan nan nan nan nan nan nan nan nan nan nan 40 nan nan nan nan nan nan nan nan nan nan nan nan nan nan nan nan nan nan nan
57 57 57 58 59 59 60 61 60 60 63 63 64 65 67 65 60 60 58 55 56 55 56 54 52 53 52 50 48 49 47 45 54 60 58 56 nan nan nan nan nan 49 nan nan nan 42 45 42 42 nan 44 45 46 48 nan nan nan nan nan nan nan nan nan nan nan nan nan 38 nan nan nan nan nan nan nan nan nan nan nan nan nan nan nan nan nan
56 57 56 57 58 59 59 59 59 57 62 65 66 69 67 66 66 64 61 55 58 59 57 56 53 50 50 50 49 47 47 55 59 61 59 57 56 nan nan nan nan nan nan nan nan nan 45 43 42 42 43 nan 48 50 50 49 49 nan nan nan nan nan nan nan nan nan nan nan nan nan nan nan nan nan nan nan nan nan nan nan nan nan nan nan nan
56 56 57 60 61 58 56 57 57 60 64 65 67 67 68 67 62 58 56 56 56 56 55 54 52 54 57 56 53 48 47 51 59 60 60 59 57 56 nan nan nan nan nan nan 44 42 41 41 42 nan nan nan nan nan nan nan nan nan nan nan nan nan nan nan nan nan nan nan nan nan nan nan nan nan nan nan nan nan nan nan nan nan nan nan nan
56 57 60 60 56 53 55 57 59 62 65 66 67 68 67 64 61 54 51 53 57 57 55 53 52 51 52 52 52 53 56 55 60 61 62 61 60 nan nan nan nan nan nan 49 44 43 42 42 41 44 nan nan nan nan 44 nan nan nan nan nan nan nan nan nan nan nan nan nan nan nan nan nan nan nan nan nan nan nan nan nan nan nan nan nan nan
59 59 56 53 51 54 57 58 58 59 62 66 66 63 57 55 54 54 53 52 53 54 55 53 51 52 52 53 57 59 59 59 59 59 nan nan nan nan nan nan nan nan nan 47 44 41 41 nan nan 44 43 nan nan nan nan nan nan nan nan nan nan nan 40 nan nan nan nan nan nan nan nan nan nan nan nan nan nan nan nan nan nan nan nan nan nan
61 57 55 51 52 55 56 57 58 61 63 62 58 50 45 45 49 52 51 53 53 52 51 49 48 47 50 52 54 56 57 58 58 58 58 58 nan nan nan nan nan nan nan nan nan nan 40 42 nan nan nan nan nan nan nan nan nan nan nan nan nan nan nan nan nan nan nan nan nan nan nan nan nan nan nan nan nan nan nan nan nan nan nan nan nan
53 50 48 50 51 53 54 56 60 62 60 55 50 46 44 46 48 49 50 51 51 51 51 50 49 50 55 55 nan nan 54 54 55 55 55 55 56 nan nan nan nan nan nan nan nan 43 43 43 nan 40 nan nan nan nan nan nan nan nan nan nan nan nan nan nan nan nan nan nan nan nan nan nan nan nan nan nan nan nan nan nan nan nan nan nan nan
51 50 49 49 50 53 54 57 61 57 52 48 45 47 47 48 48 49 48 48 49 51 52 52 52 52 52 nan nan 52 52 53 53 53 51 49 nan nan nan nan nan nan nan nan nan nan 42 nan nan nan nan nan nan nan nan nan nan nan nan nan nan nan nan nan nan nan nan nan nan nan nan nan nan nan nan nan nan nan nan nan nan nan nan nan nan
51 49 49 51 53 55 56 57 58 56 50 47 45 47 47 47 47 48 47 49 51 nan nan nan nan nan nan nan nan 48 49 51 nan nan nan nan nan nan nan nan 38 40 nan nan nan 41 39 nan nan nan nan nan nan nan nan nan nan nan nan nan nan nan nan nan nan nan nan nan nan nan nan nan nan nan nan nan nan nan nan nan nan nan nan nan nan
50 53 56 56 56 56 56 54 53 50 49 47 46 46 47 45 45 46 48 51 51 nan nan nan nan nan nan nan nan nan nan nan nan nan nan nan nan nan nan nan nan 37 40 nan nan nan nan nan nan nan nan nan nan nan nan nan nan nan nan nan nan nan nan nan nan nan nan nan nan nan nan nan nan nan nan nan nan nan nan nan nan nan nan nan nan
55 56 57 57 55 52 50 50 49 48 46 45 46 45 45 44 45 47 49 48 49 51 nan nan nan nan nan nan nan nan nan nan nan nan nan nan nan nan nan nan nan nan 39 nan nan nan nan nan nan nan nan nan nan nan nan nan nan nan nan nan nan nan nan nan nan nan nan nan nan nan nan nan nan nan nan nan nan nan nan nan nan nan nan nan nan
55 54 51 49 48 47 47 48 45 43 43 43 45 44 44 45 46 48 48 48 47 47 48 45 47 nan nan nan nan nan nan nan nan nan nan nan nan nan nan nan nan nan nan nan nan nan nan nan nan nan nan nan nan nan nan nan nan nan nan nan nan nan nan nan nan nan nan nan nan nan nan nan nan nan nan nan nan nan nan nan nan nan nan nan nan
49 46 44 43 45 45 44 43 42 41 42 43 43 44 45 45 45 47 48 45 46 46 44 43 46 nan nan nan nan nan nan nan nan nan nan nan nan nan nan nan 33 32 nan nan nan nan nan nan nan nan nan nan nan nan nan nan nan nan nan nan nan nan nan nan nan nan nan nan nan nan nan nan nan nan nan nan nan nan nan nan nan nan nan nan nan
43 40 39 40 40 43 41 39 41 42 42 44 41 39 42 43 44 45 46 44 43 44 43 43 44 nan nan nan nan nan nan nan nan nan nan nan nan nan nan nan nan nan nan nan nan nan nan nan nan nan nan nan nan nan nan nan nan nan nan nan nan nan nan nan nan nan nan nan nan nan nan nan nan nan nan nan nan nan nan nan nan nan nan nan nan
39 37 38 39 39 39 41 44 42 42 42 44 44 43 45 41 43 43 44 43 42 42 43 43 nan nan nan nan nan nan nan nan nan nan 37 nan nan nan nan nan nan nan nan nan nan nan nan nan nan nan nan nan nan nan nan nan nan nan nan nan nan nan nan nan nan nan nan nan nan nan nan nan nan nan nan nan nan nan nan nan nan nan nan nan nan
37 35 38 38 43 43 43 43 42 42 45 44 44 44 43 43 43 41 41 40 39 39 43 42 nan nan nan nan nan nan nan nan nan nan 32 nan nan nan nan nan nan nan nan nan nan nan nan nan nan nan nan nan nan nan nan nan nan nan nan nan nan nan nan nan nan nan nan nan nan nan nan nan nan nan nan nan nan nan nan nan nan nan nan nan nan
36 38 40 39 43 43 44 42 43 42 43 44 44 43 nan nan nan 38 nan 36 37 38 39 nan nan nan nan nan nan nan nan nan nan nan nan nan nan nan nan nan nan nan nan nan nan nan nan nan nan nan nan nan nan nan nan nan nan nan nan nan nan nan nan nan nan nan nan nan nan nan nan nan nan nan nan nan nan nan nan nan nan nan nan nan nan
38 39 41 42 43 42 43 43 42 42 42 43 nan nan nan nan 37 nan nan nan 38 nan nan nan 42 39 40 39 nan nan nan nan nan nan nan nan 25 28 nan nan nan nan nan nan nan nan nan nan nan nan nan nan nan nan nan nan nan nan nan nan nan nan nan nan nan nan nan nan nan nan nan nan nan nan nan nan nan nan nan nan nan nan nan nan nan
40 43 44 43 43 43 43 42 41 nan nan nan 38 nan nan nan nan nan nan nan nan nan nan nan 41 39 38 38 nan nan nan nan nan nan nan nan nan nan 29 nan nan nan nan nan nan nan nan nan nan nan nan nan nan nan nan nan nan nan nan nan nan nan nan nan nan nan nan nan nan nan nan nan nan nan nan nan nan nan nan nan nan nan nan nan nan
40 41 42 43 43 42 40 nan nan nan nan nan nan nan nan nan nan nan nan nan nan nan nan nan nan 40 nan nan nan nan nan nan nan nan nan nan nan 25 27 nan nan nan nan nan nan nan nan nan nan nan nan nan nan nan nan nan nan nan nan nan nan nan nan nan nan nan nan nan nan nan nan nan nan nan nan nan nan nan nan nan nan nan nan nan nan
nan 40 40 40 40 39 38 39 37 nan 36 36 nan nan nan nan nan nan nan nan nan nan nan nan nan nan nan nan nan nan nan nan nan nan nan nan nan nan nan nan nan nan nan nan nan nan nan nan nan nan nan nan nan nan nan nan nan nan nan nan nan nan nan nan nan nan nan nan nan nan nan nan nan nan nan nan nan nan nan nan nan nan nan nan nan
37 nan nan nan nan 37 38 nan nan nan nan nan nan nan nan nan nan nan nan nan nan nan nan nan nan nan nan nan nan nan nan nan nan nan nan nan 24 nan nan nan nan nan nan nan nan nan nan nan nan nan nan nan nan nan nan nan nan nan nan nan nan nan nan nan nan nan nan nan nan nan nan nan nan nan nan nan nan nan nan nan nan nan nan nan nan
Wind_Direction
320 313 309 311 309 311 309 306 309 304 306 309 309 311 313 316 321 321 319 328 328 331 330 333 335 334 334 333 331 329 328 328 327 325 324 321 320 321 314 309 311 317 318 318 319 321 320 317 315 311 307 313 317 314 312 309 306 306 302 298 296 295 297 296 294 293 295 298 296 294 294 297 305 309 311 314 314 314 317 317 318 318 317 316 315
319 313 312 315 320 319 320 317 317 312 317 318 319 317 318 321 321 321 324 328 330 333 333 334 335 335 335 334 331 328 326 327 326 324 324 322 324 324 317 307 308 314 316 317 318 318 317 315 315 311 305 306 310 313 311 310 309 306 303 300 300 301 302 301 300 299 301 301 302 298 297 300 304 306 309 309 310 311 314 314 313 314 313 313 313
321 308 312 315 320 319 321 323 322 323 327 323 331 329 324 323 322 324 322 324 327 331 333 335 336 336 335 332 330 327 325 325 324 323 323 322 323 325 323 312 311 316 319 319 318 318 319 315 314 313 309 308 310 313 311 309 308 308 306 304 304 302 298 297 294 294 295 299 300 299 298 298 299 298 300 303 304 306 308 309 310 310 311 312 312
325 315 315 317 321 320 324 321 328 331 335 330 335 337 331 326 325 326 324 320 324 326 329 332 332 333 333 330 329 326 324 323 322 321 321 321 318 316 313 307 306 313 317 317 317 319 320 318 317 317 314 312 312 312 312 309 308 310 310 306 305 304 302 298 296 293 290 290 292 291 290 291 295 297 297 298 301 303 304 304 305 308 309 309 309
327 323 321 326 327 324 325 323 327 331 335 335 341 339 335 332 329 329 323 323 322 322 323 327 329 332 332 330 329 328 325 323 322 319 317 318 318 313 307 304 305 309 312 312 314 317 319 319 318 317 316 314 311 310 309 310 310 311 310 307 306 304 299 297 296 296 296 295 292 291 290 291 292 293 291 291 295 298 300 304 307 310 309 308 308
324 321 321 324 324 325 323 324 332 334 335 339 343 339 334 329 331 326 322 322 321 323 324 326 329 332 333 330 330 331 326 323 322 318 315 314 314 314 311 310 312 312 312 311 313 313 316 316 314 314 315 313 310 309 308 309 308 309 309 308 304 301 299 299 300 301 301 301 298 295 295 296 295 294 293 294 295 299 303 307 309 310 308 306 305
313 315 320 324 319 321 321 324 327 330 331 335 335 330 330 332 332 328 322 325 327 327 327 328 329 332 333 331 331 330 326 323 321 316 311 311 311 312 312 312 312 312 312 312 310 310 314 314 310 312 313 310 308 307 306 306 308 308 308 306 305 304 304 304 304 303 303 303 302 304 304 304 303 301 300 301 301 303 306 305 306 307 306 305 303
311 310 311 313 314 316 315 319 324 327 329 329 327 322 321 321 322 317 318 326 332 331 331 331 331 333 333 331 328 326 324 321 319 315 310 309 309 311 311 310 311 310 309 310 308 309 314 315 312 309 309 306 305 304 304 305 305 305 303 302 303 304 305 306 307 307 307 306 307 308 309 310 309 309 306 303 301 303 306 307 307 305 303 300 299
311 308 307 309 308 306 306 311 317 322 324 323 324 323 321 320 318 318 323 329 329 332 332 332 331 332 331 330 328 326 324 321 315 311 307 309 311 311 310 309 309 309 309 309 306 305 310 311 307 305 305 309 310 308 308 307 303 303 303 303 304 305 306 306 307 309 309 309 310 311 312 311 308 306 303 301 301 302 302 303 304 304 301 298 298
306 304 306 303 298 298 302 305 311 313 315 320 326 326 324 324 323 325 327 330 327 326 327 327 330 329 329 331 329 325 323 319 315 311 311 313 313 308 307 308 309 309 310 308 305 308 310 309 301 299 305 311 313 314 315 313 307 301 299 301 303 305 306 305 307 309 309 309 309 309 nan nan nan 302 299 298 297 297 299 299 299 299 298 298 296
300 299 300 294 291 292 294 299 302 307 310 314 319 323 325 323 323 326 325 326 327 325 325 326 328 327 329 331 331 327 323 320 317 315 321 321 313 308 308 308 309 309 309 305 304 308 307 297 296 310 311 305 308 317 315 309 302 298 298 303 304 305 306 307 307 306 306 306 307 308 nan nan nan 299 297 296 296 295 295 296 296 295 295 293 292
300 295 292 286 286 290 290 295 300 305 307 313 315 318 318 318 320 321 322 323 324 324 326 327 326 324 325 330 330 327 324 322 319 316 317 319 313 307 305 305 307 308 306 305 303 301 298 301 307 308 304 302 300 302 300 295 292 296 303 305 306 308 309 307 305 304 304 306 309 309 306 303 300 299 298 297 296 295 296 296 297 297 296 295 294
296 291 288 286 285 286 290 296 302 307 311 312 312 313 315 316 317 319 321 318 318 323 324 324 321 322 324 327 329 326 322 314 317 317 317 315 314 308 304 303 306 307 304 299 296 298 301 304 304 300 294 300 300 296 295 292 293 297 298 301 303 306 305 308 311 309 305 308 310 309 307 304 304 302 300 299 298 299 298 298 298 297 295 294 296
292 288 284 284 283 287 292 298 302 308 310 310 311 312 314 315 314 313 313 314 317 320 323 323 319 320 320 323 325 322 317 314 318 316 314 314 313 306 303 306 303 302 300 300 301 302 302 304 304 292 293 295 295 296 294 289 289 294 297 298 300 302 306 313 318 321 nan 313 311 309 306 303 305 304 303 302 300 299 299 nan nan nan nan nan nan
286 287 287 287 290 292 294 296 302 306 308 309 309 310 309 308 309 308 308 310 312 316 318 319 317 316 317 319 320 319 315 317 316 313 313 314 310 304 304 302 301 300 298 297 300 302 304 299 292 298 298 294 297 301 296 291 289 293 296 297 298 297 297 300 306 308 309 nan 312 312 309 308 308 308 305 nan nan nan nan nan nan nan nan nan nan
283 287 293 295 298 299 298 299 301 303 304 305 306 305 305 306 305 304 307 309 311 311 313 314 314 311 313 317 318 317 310 315 314 315 313 312 313 310 309 306 304 301 299 299 301 301 301 299 296 292 295 295 297 305 303 292 290 295 300 301 299 297 299 304 nan nan 305 308 310 312 311 309 308 308 nan nan nan nan nan nan nan nan nan nan nan
283 288 294 296 298 300 299 299 298 298 299 299 301 302 301 302 303 303 307 308 309 309 310 311 310 312 315 318 316 315 309 318 318 314 312 312 307 308 311 309 304 302 299 296 299 306 300 296 294 293 295 293 298 304 303 293 292 298 300 300 300 300 299 296 nan nan nan nan nan nan nan nan nan nan nan nan nan nan nan nan nan nan nan nan nan
281 286 291 293 294 295 295 294 294 294 294 297 298 299 300 301 302 302 306 308 309 307 306 307 309 310 314 318 317 311 308 309 312 313 313 312 312 310 310 306 302 299 296 295 297 298 296 302 294 292 292 294 300 303 298 293 293 296 298 300 300 301 301 nan nan 303 nan nan nan nan nan nan nan nan nan nan nan nan nan nan nan nan nan nan nan
280 283 286 287 288 289 289 290 291 293 295 296 297 298 299 297 296 297 302 303 304 303 304 305 307 307 312 315 312 309 308 311 316 315 314 314 311 307 306 302 299 293 290 293 296 296 293 295 299 295 294 294 295 292 294 294 294 297 298 298 301 303 301 297 297 296 298 302 304 307 308 311 nan nan nan nan nan nan nan nan nan nan nan 310 nan
276 277 282 283 283 285 285 287 289 293 294 294 294 294 294 294 294 295 297 299 299 300 301 304 306 310 315 317 314 310 310 308 315 317 316 316 316 309 304 301 295 289 288 293 293 295 293 291 292 294 290 295 297 299 297 291 293 295 296 297 nan 302 nan nan 297 297 299 nan nan nan 307 307 nan nan 309 311 312 312 315 nan nan 313 313 313 309
272 274 276 279 279 281 280 283 286 288 289 289 288 288 290 291 291 292 294 295 296 297 301 304 307 309 313 315 314 312 311 311 314 320 318 316 318 314 304 299 291 286 288 296 299 297 293 294 293 299 295 294 293 292 291 291 292 nan nan nan 297 nan nan nan nan nan nan nan nan nan nan 309 308 nan nan nan nan nan nan 309 313 315 309 nan nan
270 271 274 276 277 278 278 278 281 284 285 284 283 281 283 285 288 290 290 292 295 297 298 302 305 308 310 311 311 310 311 316 309 319 317 317 316 316 303 296 290 288 293 298 299 297 296 294 292 294 297 293 290 290 291 293 nan nan nan nan nan nan nan nan nan nan nan nan nan nan nan nan nan nan nan nan nan nan nan nan nan nan nan nan nan
269 270 271 273 273 274 275 278 279 280 281 280 279 278 278 282 286 288 288 292 295 298 301 303 306 309 311 310 309 305 301 311 311 312 320 321 320 317 312 299 280 289 295 298 299 298 294 288 281 286 291 288 289 291 nan nan nan nan nan nan nan nan nan nan nan nan nan nan nan nan nan nan nan nan nan nan nan nan nan nan nan nan nan nan nan
266 267 267 269 272 274 277 278 279 281 282 281 279 278 278 281 284 288 289 292 295 298 301 305 308 310 312 309 302 301 302 299 306 314 318 323 318 316 315 nan 282 290 294 300 299 296 294 287 287 287 286 287 289 nan 295 298 nan nan nan nan nan nan nan nan nan nan nan nan nan nan nan nan nan nan nan nan nan nan nan nan nan nan nan nan nan
266 267 269 271 273 275 276 277 279 281 281 281 281 281 283 284 284 286 289 292 297 302 305 307 308 308 308 305 305 305 303 302 300 301 307 nan nan 310 nan 309 303 292 297 292 291 292 289 288 288 289 289 291 293 293 295 nan nan nan nan nan nan nan nan nan nan nan nan nan nan nan nan nan nan nan nan nan nan nan nan nan nan nan nan nan nan
265 268 270 272 274 275 276 276 278 279 279 282 286 290 293 293 288 286 290 295 298 303 304 304 305 306 305 305 307 308 306 303 302 304 305 306 307 307 308 301 290 288 290 293 294 294 293 293 293 292 292 292 292 292 nan nan nan nan nan nan nan nan nan nan nan nan nan nan nan nan nan nan nan nan nan nan nan nan nan nan nan nan nan nan nan
264 266 268 271 272 273 274 274 274 275 279 285 291 294 299 301 297 294 295 297 298 301 303 303 303 304 306 308 309 308 308 305 306 307 306 306 304 302 299 297 295 292 292 294 295 294 295 295 296 299 297 300 nan nan nan nan nan nan nan nan nan nan nan nan nan nan nan nan nan nan nan nan nan nan nan nan nan nan nan nan nan nan nan nan nan
264 266 267 267 268 270 271 273 276 279 284 289 293 296 298 300 300 300 299 297 299 300 302 302 301 304 307 309 308 307 308 308 309 309 309 308 306 305 305 304 301 299 297 299 299 298 295 295 296 296 nan nan nan nan nan nan nan nan nan nan nan nan nan nan nan nan nan nan nan nan nan nan nan nan nan nan nan nan nan nan nan nan nan nan nan
264 267 267 267 268 269 272 274 276 280 280 279 281 283 288 291 292 289 284 282 286 295 298 296 299 303 307 306 306 306 308 311 312 311 310 309 308 308 308 308 305 303 304 304 nan nan nan 297 nan nan nan nan nan nan nan nan nan nan nan nan nan nan nan nan nan 307 nan nan nan nan nan nan nan nan nan nan nan nan nan nan nan nan nan nan nan
265 267 268 270 272 273 274 276 278 281 283 285 286 286 282 281 282 287 284 280 283 283 288 296 300 304 304 302 301 307 308 305 303 307 307 309 nan nan nan nan nan 305 nan nan nan 303 303 302 302 nan 302 301 301 302 nan nan nan nan nan nan nan nan nan nan nan nan nan 301 nan nan nan nan nan nan nan nan nan nan nan nan nan nan nan nan nan
264 267 269 270 270 271 274 278 281 283 284 286 287 287 286 279 275 274 275 279 279 280 283 288 291 295 301 302 296 288 294 301 303 304 305 304 303 nan nan nan nan nan nan nan nan nan 304 305 303 298 294 nan 303 304 305 308 308 nan nan nan nan nan nan nan nan nan nan nan nan nan nan nan nan nan nan nan nan nan nan nan nan nan nan nan nan
263 267 267 267 267 270 274 277 282 284 284 285 287 286 285 286 283 274 270 273 277 281 284 287 290 296 299 301 300 295 295 301 303 303 302 300 299 297 nan nan nan nan nan nan 303 303 300 296 294 nan nan nan nan nan nan nan nan nan nan nan nan nan nan nan nan nan nan nan nan nan nan nan nan nan nan nan nan nan nan nan nan nan nan nan nan
263 264 263 267 271 274 276 279 282 284 285 285 285 284 284 285 286 285 278 277 281 283 284 285 286 287 290 295 299 300 303 304 302 301 300 299 297 nan nan nan nan nan nan 300 303 304 301 301 301 301 nan nan nan nan 300 nan nan nan nan nan nan nan nan nan nan nan nan nan nan nan nan nan nan nan nan nan nan nan nan nan nan nan nan nan nan
254 257 264 271 273 276 280 282 283 284 284 285 286 286 284 284 287 289 290 293 291 288 285 283 283 285 284 288 293 297 300 301 299 298 nan nan nan nan nan nan nan nan nan 302 305 304 303 nan nan 303 302 nan nan nan nan nan nan nan nan nan nan nan 308 nan nan nan nan nan nan nan nan nan nan nan nan nan nan nan nan nan nan nan nan nan nan
254 262 271 273 275 281 284 284 285 285 285 286 289 291 290 288 288 292 296 298 298 297 297 291 283 280 289 292 292 295 297 297 298 299 298 299 nan nan nan nan nan nan nan nan nan nan 300 299 nan nan nan nan nan nan nan nan nan nan nan nan nan nan nan nan nan nan nan nan nan nan nan nan nan nan nan nan nan nan nan nan nan nan nan nan nan
264 269 271 274 277 279 282 286 289 289 287 287 291 293 293 293 295 297 297 298 298 296 294 291 291 291 288 287 nan nan 292 294 296 298 300 301 304 nan nan nan nan nan nan nan nan 303 303 304 nan 299 nan nan nan nan nan nan nan nan nan nan nan nan nan nan nan nan nan nan nan nan nan nan nan nan nan nan nan nan nan nan nan nan nan nan nan
269 274 277 277 276 277 282 288 289 287 286 288 291 293 295 295 296 295 295 297 294 293 293 296 297 295 292 nan nan 289 290 293 294 294 294 296 nan nan nan nan nan nan nan nan nan nan 304 nan nan nan nan nan nan nan nan nan nan nan nan nan nan nan nan nan nan nan nan nan nan nan nan nan nan nan nan nan nan nan nan nan nan nan nan nan nan
270 272 272 271 271 275 281 282 283 286 286 290 292 293 294 294 294 293 294 293 292 nan nan nan nan nan nan nan nan 297 296 296 nan nan nan nan nan nan nan nan 301 305 nan nan nan 305 302 nan nan nan nan nan nan nan nan nan nan nan nan nan nan nan nan nan nan nan nan nan nan nan nan nan nan nan nan nan nan nan nan nan nan nan nan nan nan
265 267 269 270 271 277 281 282 282 284 286 289 289 290 290 292 293 293 292 293 295 nan nan nan nan nan nan nan nan nan nan nan nan nan nan nan nan nan nan nan nan 303 302 nan nan nan nan nan nan nan nan nan nan nan nan nan nan nan nan nan nan nan nan nan nan nan nan nan nan nan nan nan nan nan nan nan nan nan nan nan nan nan nan nan nan
263 263 265 270 274 277 279 280 282 286 289 290 291 290 290 292 293 293 294 297 297 297 nan nan nan nan nan nan nan nan nan nan nan nan nan nan nan nan nan nan nan nan 300 nan nan nan nan nan nan nan nan nan nan nan nan nan nan nan nan nan nan nan nan nan nan nan nan nan nan nan nan nan nan nan nan nan nan nan nan nan nan nan nan nan nan
263 265 269 273 276 278 278 281 285 287 288 288 288 291 292 292 293 293 295 295 294 294 296 300 297 nan nan nan nan nan nan nan nan nan nan nan nan nan nan nan nan nan nan nan nan nan nan nan nan nan nan nan nan nan nan nan nan nan nan nan nan nan nan nan nan nan nan nan nan nan nan nan nan nan nan nan nan nan nan nan nan nan nan nan nan
270 272 275 274 276 279 281 283 284 286 286 287 290 291 290 290 291 292 292 293 294 295 296 297 294 nan nan nan nan nan nan nan nan nan nan nan nan nan nan nan 301 297 nan nan nan nan nan nan nan nan nan nan nan nan nan nan nan nan nan nan nan nan nan nan nan nan nan nan nan nan nan nan nan nan nan nan nan nan nan nan nan nan nan nan nan
272 275 276 276 279 279 279 280 280 283 285 281 275 279 282 286 290 290 292 292 292 292 292 290 290 nan nan nan nan nan nan nan nan nan nan nan nan nan nan nan nan nan nan nan nan nan nan nan nan nan nan nan nan nan nan nan nan nan nan nan nan nan nan nan nan nan nan nan nan nan nan nan nan nan nan nan nan nan nan nan nan nan nan nan nan
274 276 275 276 277 274 275 279 280 279 277 282 289 289 289 290 288 287 288 288 290 292 291 292 nan nan nan nan nan nan nan nan nan nan 297 nan nan nan nan nan nan nan nan nan nan nan nan nan nan nan nan nan nan nan nan nan nan nan nan nan nan nan nan nan nan nan nan nan nan nan nan nan nan nan nan nan nan nan nan nan nan nan nan nan nan
271 272 276 277 274 274 273 273 274 276 281 283 286 285 286 284 284 284 286 289 290 292 293 295 nan nan nan nan nan nan nan nan nan nan 296 nan nan nan nan nan nan nan nan nan nan nan nan nan nan nan nan nan nan nan nan nan nan nan nan nan nan nan nan nan nan nan nan nan nan nan nan nan nan nan nan nan nan nan nan nan nan nan nan nan nan
269 271 271 270 274 277 279 281 282 283 283 283 282 282 nan nan nan 285 nan 288 290 291 294 nan nan nan nan nan nan nan nan nan nan nan nan nan nan nan nan nan nan nan nan nan nan nan nan nan nan nan nan nan nan nan nan nan nan nan nan nan nan nan nan nan nan nan nan nan nan nan nan nan nan nan nan nan nan nan nan nan nan nan nan nan nan
273 271 273 275 275 276 276 278 279 278 277 278 nan nan nan nan 282 nan nan nan 290 nan nan nan 294 295 295 297 nan nan nan nan nan nan nan nan 294 296 nan nan nan nan nan nan nan nan nan nan nan nan nan nan nan nan nan nan nan nan nan nan nan nan nan nan nan nan nan nan nan nan nan nan nan nan nan nan nan nan nan nan nan nan nan nan nan
270 272 272 273 274 275 276 276 276 nan nan nan 278 nan nan nan nan nan nan nan nan nan nan nan 290 292 292 291 nan nan nan nan nan nan nan nan nan nan 295 nan nan nan nan nan nan nan nan nan nan nan nan nan nan nan nan nan nan nan nan nan nan nan nan nan nan nan nan nan nan nan nan nan nan nan nan nan nan nan nan nan nan nan nan nan nan
271 273 275 275 273 274 275 nan nan nan nan nan nan nan nan nan nan nan nan nan nan nan nan nan nan 295 nan nan nan nan nan nan nan nan nan nan nan 293 290 nan nan nan nan nan nan nan nan nan nan nan nan nan nan nan nan nan nan nan nan nan nan nan nan nan nan nan nan nan nan nan nan nan nan nan nan nan nan nan nan nan nan nan nan nan nan
nan 269 271 271 273 273 273 273 276 nan 275 278 nan nan nan nan nan nan nan nan nan nan nan nan nan nan nan nan nan nan nan nan nan nan nan nan nan nan nan nan nan nan nan nan nan nan nan nan nan nan nan nan nan nan nan nan nan nan nan nan nan nan nan nan nan nan nan nan nan nan nan nan nan nan nan nan nan nan nan nan nan nan nan nan nan
264 nan nan nan nan 268 269 nan nan nan nan nan nan nan nan nan nan nan nan nan nan nan nan nan nan nan nan nan nan nan nan nan nan nan nan nan 295 nan nan nan nan nan nan nan nan nan nan nan nan nan nan nan nan nan nan nan nan nan nan nan nan nan nan nan nan nan nan nan nan nan nan nan nan nan nan nan nan nan nan nan nan nan nan nan nan